[[{"header":{"parameterUnit":"m.s-1","parameterCategory":1,"la1":30.2991,"la2":30.254,"lo1":-89.0895,"lo2":-89.0444,"dy":0.0017,"dx":0.0017,"nx":28,"ny":28,"refTime":"2023-07-20T09:00:00:Z","depth":0,"parameterNumber":2,"parameterNumberName":"U-component_of_WINDS"},"data":[0,0,0,0,0,0,0,0,0,0,0,0,0,0,0,0,0,0,0,0,0,0,0,0,0,0,0,0,0,0,0,0,0,0,0,0,0,0,0,0,0,0,0,0,0,0,0,0,0,0,0,0,0,0,0,0,0,0,3.4628,3.4629,0,3.4737,3.4738,3.4739,3.4688,3.4685,3.4682,3.468,3.4792,3.4798,3.4803,0,0,0,0,0,0,0,0,0,0,0,0,0,3.4377,3.4382,3.4628,3.4629,3.4631,3.4736,3.4738,3.4739,3.4688,3.4685,3.4682,3.4678,3.479,3.4797,3.4804,0,0,0,0,0,0,0,0,0,0,0,0,0,3.4486,3.4383,3.4628,3.4618,3.4618,3.4736,3.4738,3.474,3.4689,3.4685,3.4681,3.4677,3.4788,3.4796,3.4805,3.4939,0,0,3.483,3.4834,0,0,0,0,0,0,0,0,3.448,3.4495,3.4618,3.4619,3.4619,3.4694,3.469,3.4807,3.469,3.4662,3.468,3.4675,3.4763,3.4773,3.4803,3.4944,3.4949,3.4831,3.4836,3.4839,3.4842,0,0,0,0,0,0,0,3.4472,3.449,3.4671,3.462,3.4621,3.4608,3.4619,3.4712,3.4735,3.4664,3.4661,3.4674,3.4763,3.4795,3.4805,3.4951,3.4831,3.4838,3.4843,3.4846,3.5206,3.521,0,0,0,0,0,0,3.4465,3.4484,3.4668,3.4674,3.4538,3.4616,3.4628,3.4675,3.4733,3.4738,3.4678,3.4671,3.4783,3.4795,3.4809,3.4969,3.4839,3.4847,3.4852,3.5201,3.5207,3.5212,0,0,0,0,0,0,3.446,3.4482,3.4663,3.4578,3.46,3.4625,3.4677,3.4679,3.4711,3.4744,3.4747,3.4706,3.478,3.4797,3.4906,3.4972,3.4851,3.4859,3.5196,3.5203,3.5209,3.529,0,0,0,0,0,0,3.4453,3.448,3.4531,3.458,3.4605,3.4759,3.4681,3.4684,3.4725,3.4718,3.4771,3.4776,3.4778,3.4894,3.4915,3.4981,3.4865,3.519,3.5199,3.5207,3.5282,3.5299,3.5314,0,0,0,0,0,3.4444,3.4551,3.4534,3.4557,3.467,3.4763,3.4778,3.4777,3.4731,3.4782,3.4803,3.4775,3.4961,3.4906,3.4928,3.4998,3.5186,3.5197,3.5206,3.5275,3.5296,3.5313,0,0,0,0,0,0,3.451,3.4557,3.4539,3.4665,3.471,3.4754,3.482,3.4799,3.4859,3.485,3.4847,3.4859,3.4972,3.4996,3.4934,3.5131,3.5067,3.5082,3.5111,3.5131,3.5147,3.5138,3.4872,0,0,0,0,0,3.4539,3.4611,3.4648,3.4755,3.4779,3.4796,3.4836,3.4831,3.4878,3.4898,3.4926,3.4973,3.5042,3.5088,3.5154,3.5285,3.5295,3.5344,3.536,3.5373,3.5386,3.5456,3.5478,3.5245,3.5245,3.5245,0,0,3.4601,3.4635,3.4681,3.477,3.4804,3.4878,3.4812,3.4894,3.4948,3.491,3.5015,3.5037,3.509,3.521,3.5265,3.5234,3.5453,3.5386,3.5396,3.5402,3.5469,3.5491,3.551,3.5252,3.5251,3.525,0,0,3.475,3.4784,3.4876,3.4912,3.4964,3.4974,3.4997,3.5044,3.5057,3.5162,3.5134,3.5199,3.5319,3.5356,3.5391,3.5553,3.5529,3.5575,3.5658,3.5726,3.5744,3.576,3.5817,3.5838,3.5588,3.5588,3.5588,0,3.482,3.493,3.4926,3.501,3.5049,3.5017,3.511,3.5145,3.5217,3.5245,3.5209,3.5356,3.539,3.5518,3.5557,3.5587,3.5612,3.5569,3.5742,3.5758,3.5773,3.5827,3.5849,3.5593,3.5592,3.5592,3.5591,0,3.5012,3.5089,3.5157,3.5226,3.5274,3.5362,3.5371,3.5419,3.541,3.5424,3.553,3.5568,3.564,3.567,3.5663,3.5798,3.5776,3.5742,3.5677,3.5801,3.5851,3.5872,3.56,3.5599,3.5597,3.5596,0,0,3.5208,3.5272,3.5297,3.5327,3.5383,3.5442,3.5528,3.5597,3.5638,3.5689,3.576,3.5861,3.5829,3.5868,3.5865,3.5925,3.6049,3.5882,3.5883,3.5911,3.6198,3.6223,3.6248,3.6033,3.6037,3.604,3.6193,0,3.536,3.551,3.5508,3.5647,3.5718,3.5687,3.5762,3.5804,3.5819,3.588,3.5897,3.5968,3.592,3.5944,3.6002,3.6021,3.6106,3.601,3.6099,3.6102,3.6086,3.6274,3.6302,3.6445,3.6213,3.6217,3.6219,0,3.5558,3.5614,3.576,3.5803,3.5832,3.5899,3.5962,3.6022,3.6068,3.6074,3.6118,3.6105,3.6191,3.6124,3.6244,3.6178,3.6215,3.623,3.6235,3.6243,3.6168,3.6286,3.649,3.6511,3.625,3.6248,3.6246,0,3.5685,3.5796,3.5897,3.5924,3.5978,3.6025,3.605,3.6092,3.6133,3.6188,3.6215,3.628,3.6315,3.6365,3.6369,3.632,3.6489,3.6423,3.6496,3.6496,3.6533,3.6531,3.6745,3.6558,3.6558,3.6557,3.6557,0,3.5855,3.5945,3.5954,3.6017,3.6116,3.6113,3.6212,3.6232,3.627,3.6335,3.6313,3.6375,3.6376,3.644,3.6443,3.6541,3.6557,3.6565,3.6564,3.6566,3.6565,3.6589,3.6579,3.6563,3.6562,3.656,3.6559,0,3.6013,3.6023,3.6131,3.6172,3.6184,3.6256,3.6291,3.635,3.6362,3.6445,3.6464,3.6483,3.6556,3.6565,3.6651,3.6653,3.677,3.676,3.6754,3.6752,3.6825,3.6818,3.7062,3.7093,3.6887,3.6889,3.689,0,3.6121,3.6189,3.6237,3.6279,3.6305,3.6373,3.6415,3.6414,3.6458,3.6515,3.6567,3.6638,3.6694,3.6812,3.6834,3.6898,3.6889,3.697,3.6899,3.6898,3.6889,3.6885,3.6891,3.6984,3.6986,3.6988,3.6989,0,3.6311,3.6312,3.6372,3.6434,3.6484,3.6534,3.658,3.6615,3.662,3.6671,3.6744,3.6788,3.6874,3.6944,3.7008,3.7033,3.7012,3.7012,3.7032,3.7034,3.7027,3.7031,3.6791,3.7006,3.7004,3.7003,3.7002,3.7002,3.6446,3.6505,3.6547,3.6615,3.6649,3.6692,3.6749,3.6768,3.6829,3.6898,3.6894,3.6975,3.7019,3.7102,3.7131,3.7194,3.7168,3.7197,3.7205,3.7212,3.7218,3.7018,3.7206,3.7206,3.7205,3.7205,3.7205,0,3.6634,3.6659,3.6722,3.6786,3.6839,3.6814,3.6863,3.6909,3.698,3.7022,3.7077,3.7161,3.7229,3.7255,3.7321,3.7366,3.7358,3.7383,3.738,3.7385,3.7239,3.7215,3.7389,3.7389,3.7388,3.7388,3.7388,3.7388,3.6738,3.6835,3.6841,3.6955,3.6979,3.7058,3.7088,3.7127,3.716,3.7255,3.731,3.7326,3.7362,3.7429,3.749,3.7496,3.7521,3.755,3.7552,3.7415,3.7396,3.7378,3.7355,3.7555,3.7556,3.7692,3.7694,3.7695]},{"header":{"parameterUnit":"m.s-1","parameterCategory":1,"la1":30.2991,"la2":30.254,"lo1":-89.0895,"lo2":-89.0444,"dy":0.0017,"dx":0.0017,"nx":28,"ny":28,"refTime":"2023-07-20T09:00:00:Z","depth":0,"parameterNumber":3,"parameterNumberName":"V-component_of_WINDS"},"data":[0,0,0,0,0,0,0,0,0,0,0,0,0,0,0,0,0,0,0,0,0,0,0,0,0,0,0,0,0,0,0,0,0,0,0,0,0,0,0,0,0,0,0,0,0,0,0,0,0,0,0,0,0,0,0,0,0,0,-0.828,-0.828,0,-0.8284,-0.8284,-0.8284,-0.8284,-0.8284,-0.8284,-0.8284,-0.8287,-0.8287,-0.8287,0,0,0,0,0,0,0,0,0,0,0,0,0,-0.8273,-0.8273,-0.828,-0.828,-0.828,-0.8284,-0.8284,-0.8284,-0.8284,-0.8284,-0.8284,-0.8284,-0.8287,-0.8287,-0.8287,0,0,0,0,0,0,0,0,0,0,0,0,0,-0.8276,-0.8273,-0.828,-0.8281,-0.8281,-0.8284,-0.8284,-0.8284,-0.8284,-0.8284,-0.8284,-0.8284,-0.8287,-0.8287,-0.8287,-0.829,0,0,-0.8288,-0.8288,0,0,0,0,0,0,0,0,-0.8276,-0.8276,-0.828,-0.8281,-0.8281,-0.8283,-0.8282,-0.8286,-0.8284,-0.8283,-0.8284,-0.8284,-0.8286,-0.8286,-0.8287,-0.829,-0.829,-0.8288,-0.8288,-0.8288,-0.8288,0,0,0,0,0,0,0,-0.8276,-0.8276,-0.8282,-0.828,-0.8281,-0.828,-0.8281,-0.8283,-0.8285,-0.8283,-0.8283,-0.8283,-0.8286,-0.8287,-0.8287,-0.829,-0.8288,-0.8288,-0.8288,-0.8288,-0.8296,-0.8296,0,0,0,0,0,0,-0.8275,-0.8276,-0.8281,-0.8282,-0.8278,-0.8281,-0.8281,-0.8282,-0.8285,-0.8285,-0.8283,-0.8283,-0.8286,-0.8287,-0.8287,-0.8291,-0.8288,-0.8288,-0.8288,-0.8296,-0.8296,-0.8296,0,0,0,0,0,0,-0.8275,-0.8276,-0.8281,-0.8279,-0.8279,-0.8281,-0.8282,-0.8283,-0.8283,-0.8285,-0.8285,-0.8284,-0.8286,-0.8287,-0.8289,-0.8291,-0.8288,-0.8289,-0.8296,-0.8296,-0.8296,-0.8297,0,0,0,0,0,0,-0.8275,-0.8276,-0.8277,-0.8279,-0.828,-0.8284,-0.8282,-0.8283,-0.8284,-0.8284,-0.8286,-0.8286,-0.8286,-0.8289,-0.829,-0.8291,-0.8289,-0.8296,-0.8296,-0.8296,-0.8297,-0.8298,-0.8298,0,0,0,0,0,-0.8275,-0.8277,-0.8277,-0.8278,-0.8281,-0.8284,-0.8284,-0.8285,-0.8284,-0.8285,-0.8286,-0.8286,-0.829,-0.8289,-0.829,-0.8291,-0.8296,-0.8296,-0.8296,-0.8297,-0.8297,-0.8298,0,0,0,0,0,0,-0.8275,-0.8277,-0.8277,-0.828,-0.8282,-0.8284,-0.8285,-0.8285,-0.8287,-0.8287,-0.8287,-0.8288,-0.829,-0.8291,-0.829,-0.8294,-0.8293,-0.8293,-0.8294,-0.8294,-0.8294,-0.8294,-0.8289,0,0,0,0,0,-0.8275,-0.8277,-0.8279,-0.8281,-0.8282,-0.8284,-0.8285,-0.8285,-0.8287,-0.8287,-0.8288,-0.829,-0.8292,-0.8293,-0.8295,-0.8297,-0.8298,-0.8299,-0.8299,-0.8299,-0.8299,-0.8301,-0.8301,-0.8297,-0.8297,-0.8297,0,0,-0.8276,-0.8277,-0.8279,-0.8281,-0.8283,-0.8285,-0.8284,-0.8286,-0.8288,-0.8288,-0.829,-0.8291,-0.8293,-0.8295,-0.8297,-0.8296,-0.8301,-0.8299,-0.83,-0.83,-0.8301,-0.8302,-0.8302,-0.8297,-0.8297,-0.8297,0,0,-0.8278,-0.828,-0.8282,-0.8283,-0.8285,-0.8286,-0.8287,-0.8289,-0.8289,-0.8292,-0.8292,-0.8294,-0.8297,-0.8298,-0.8299,-0.8302,-0.8302,-0.8303,-0.8304,-0.8306,-0.8306,-0.8306,-0.8307,-0.8308,-0.8303,-0.8303,-0.8303,0,-0.8279,-0.8282,-0.8283,-0.8285,-0.8286,-0.8287,-0.8289,-0.829,-0.8293,-0.8293,-0.8293,-0.8297,-0.8298,-0.8301,-0.8302,-0.8303,-0.8303,-0.8303,-0.8306,-0.8306,-0.8307,-0.8308,-0.8308,-0.8303,-0.8303,-0.8303,-0.8303,0,-0.8282,-0.8285,-0.8286,-0.8289,-0.829,-0.8292,-0.8294,-0.8295,-0.8296,-0.8296,-0.8299,-0.8301,-0.8303,-0.8303,-0.8304,-0.8307,-0.8306,-0.8306,-0.8305,-0.8307,-0.8308,-0.8308,-0.8303,-0.8303,-0.8303,-0.8303,0,0,-0.8285,-0.8288,-0.8289,-0.829,-0.8292,-0.8294,-0.8296,-0.8298,-0.83,-0.8301,-0.8303,-0.8306,-0.8306,-0.8307,-0.8307,-0.8309,-0.8311,-0.8308,-0.8308,-0.8309,-0.8314,-0.8315,-0.8315,-0.8311,-0.8311,-0.8311,-0.8314,0,-0.8287,-0.8291,-0.8292,-0.8296,-0.8298,-0.8298,-0.83,-0.8302,-0.8303,-0.8305,-0.8306,-0.8308,-0.8307,-0.8308,-0.831,-0.8311,-0.8312,-0.831,-0.8313,-0.8313,-0.8312,-0.8316,-0.8316,-0.8318,-0.8315,-0.8315,-0.8315,0,-0.8291,-0.8293,-0.8296,-0.8299,-0.83,-0.8302,-0.8304,-0.8306,-0.8307,-0.8308,-0.831,-0.831,-0.8312,-0.8311,-0.8314,-0.8313,-0.8314,-0.8315,-0.8315,-0.8315,-0.8314,-0.8316,-0.8319,-0.832,-0.8315,-0.8315,-0.8315,0,-0.8292,-0.8295,-0.8298,-0.8299,-0.8302,-0.8303,-0.8305,-0.8307,-0.8308,-0.831,-0.8311,-0.8313,-0.8314,-0.8316,-0.8317,-0.8316,-0.832,-0.8319,-0.832,-0.832,-0.8321,-0.8321,-0.8324,-0.8322,-0.8322,-0.8322,-0.8322,0,-0.8294,-0.8297,-0.8299,-0.8301,-0.8303,-0.8304,-0.8307,-0.8308,-0.831,-0.8312,-0.8312,-0.8314,-0.8315,-0.8317,-0.8318,-0.832,-0.8321,-0.8321,-0.8321,-0.8321,-0.8321,-0.8322,-0.8321,-0.8322,-0.8322,-0.8322,-0.8322,0,-0.8296,-0.8298,-0.8301,-0.8303,-0.8304,-0.8306,-0.8308,-0.831,-0.8311,-0.8313,-0.8314,-0.8315,-0.8318,-0.8319,-0.8321,-0.8322,-0.8325,-0.8325,-0.8324,-0.8324,-0.8325,-0.8325,-0.833,-0.833,-0.8327,-0.8327,-0.8327,0,-0.8297,-0.8299,-0.8302,-0.8304,-0.8305,-0.8307,-0.8309,-0.831,-0.8311,-0.8314,-0.8315,-0.8318,-0.832,-0.8323,-0.8324,-0.8327,-0.8327,-0.8328,-0.8327,-0.8327,-0.8327,-0.8326,-0.8326,-0.8328,-0.8328,-0.8328,-0.8328,0,-0.83,-0.8301,-0.8303,-0.8306,-0.8307,-0.8309,-0.8311,-0.8312,-0.8314,-0.8316,-0.8318,-0.832,-0.8323,-0.8325,-0.8327,-0.8328,-0.8328,-0.8329,-0.8329,-0.8329,-0.8328,-0.8328,-0.8324,-0.8328,-0.8328,-0.8328,-0.8328,-0.8328,-0.8301,-0.8303,-0.8306,-0.8308,-0.831,-0.8312,-0.8313,-0.8315,-0.8317,-0.832,-0.832,-0.8323,-0.8325,-0.8328,-0.8329,-0.8331,-0.8331,-0.8331,-0.8332,-0.8332,-0.8332,-0.8328,-0.8331,-0.8331,-0.8331,-0.8331,-0.8331,0,-0.8304,-0.8306,-0.8308,-0.8311,-0.8313,-0.8313,-0.8315,-0.8317,-0.8319,-0.8321,-0.8323,-0.8326,-0.8328,-0.833,-0.8332,-0.8333,-0.8334,-0.8334,-0.8334,-0.8334,-0.8332,-0.8331,-0.8334,-0.8334,-0.8334,-0.8334,-0.8334,-0.8334,-0.8305,-0.8308,-0.8309,-0.8313,-0.8315,-0.8318,-0.8319,-0.8321,-0.8322,-0.8325,-0.8327,-0.8328,-0.833,-0.8333,-0.8335,-0.8335,-0.8336,-0.8336,-0.8337,-0.8335,-0.8334,-0.8334,-0.8333,-0.8337,-0.8337,-0.8339,-0.8339,-0.8339]}]]